Champaign, IL

3:08 PM CST on November 12, 2019 (GMT -0600)
Univ Of Illinois-Willard

Weather History for KCMI - May, 2019

Change the Weather History Date:

Friday, May 31, 2019

  Actual Average Record
Temperature  
Mean Temperature 70 °F 68 °F  
Max Temperature 80 °F 80 °F 93 °F (2002)
Min Temperature 60 °F 56 °F 45 °F (2001)
Degree Days  
Heating Degree Days 0 2  
Month to date heating degree days 136 141  
Since 1 July heating degree days 5899 5806  
Cooling Degree Days 5 5  
Month to date cooling degree days 107 81  
Year to date cooling degree days 110 92  
Growing Degree Days 20 (Base 50)    
Moisture  
Dew Point 61 °F    
Average Humidity 76    
Maximum Humidity 100    
Minimum Humidity 51    
Precipitation  
Precipitation 0.00 in 0.14 in 0.85 in (2013)
Month to date precipitation 4.96 4.55  
Year to date precipitation 17.10 15.16  
Sea Level Pressure  
Sea Level Pressure 29.89 in    
Wind  
Wind Speed 7 mph (WNW)    
Max Wind Speed 14 mph    
Max Gust Speed 17 mph    
Visibility 10 miles    
Events      
T = Trace of Precipitation, MM = Missing Value Source: NWS Daily Summary

Daily Weather History Graph

Daily Weather History Graph

Search for Another Location

Airport or City:

Astronomy

May. 31, 2019 Rise Set
Actual Time 5:26 AM CDT 8:15 PM CDT
Civil Twilight 4:54 AM CDT 8:47 PM CDT
Nautical Twilight 4:14 AM CDT 9:27 PM CDT
Astronomical Twilight 3:28 AM CDT 10:14 PM CDT
Moon 4:00 AM CDT (5/31) 5:24 PM CDT (5/31)
Length of Visible Light 15h 52m
Length of Day
14h 48m
Waning Crescent, 8% of the Moon is Illuminated
May 31
Waning Crescent
Jun 3
New
Jun 10
First Quarter
Jun 17
Full
Jun 25
Last Quarter

Hourly Weather History & Observations

Time (CDT) Temp. Heat Index Dew Point Humidity Pressure Visibility Wind Dir Wind Speed Gust Speed Precip Events Conditions
12:53 AM 62.1 °F - 59.0 °F 90% 29.85 in 10.0 mi Calm Calm - N/A   Clear
1:53 AM 62.1 °F - 60.1 °F 93% 29.84 in 10.0 mi WSW 4.6 mph - N/A   Overcast
2:53 AM 62.1 °F - 60.1 °F 93% 29.85 in 10.0 mi West 3.5 mph - N/A   Overcast
3:53 AM 62.1 °F - 60.1 °F 93% 29.87 in 10.0 mi NNW 3.5 mph - N/A   Overcast
4:53 AM 62.1 °F - 60.1 °F 93% 29.87 in 10.0 mi NW 4.6 mph - N/A   Mostly Cloudy
5:53 AM 62.1 °F - 60.1 °F 93% 29.86 in 6.0 mi West 6.9 mph - N/A   Clear
6:53 AM 61.0 °F - 60.1 °F 97% 29.89 in 7.0 mi NW 3.5 mph - N/A   Clear
7:04 AM 62.1 °F - 60.1 °F 93% 29.90 in 8.0 mi WNW 5.8 mph - N/A   Mostly Cloudy
7:53 AM 64.9 °F - 62.1 °F 90% 29.89 in 10.0 mi WNW 6.9 mph - N/A   Scattered Clouds
8:53 AM 70.0 °F - 61.0 °F 73% 29.91 in 10.0 mi West 10.4 mph - N/A   Clear
9:53 AM 72.0 °F - 60.1 °F 66% 29.91 in 10.0 mi West 8.1 mph - N/A   Clear
10:53 AM 73.9 °F - 62.1 °F 66% 29.92 in 10.0 mi NNW 6.9 mph - N/A   Clear
11:53 AM 75.9 °F - 60.1 °F 58% 29.92 in 10.0 mi WSW 4.6 mph - N/A   Clear
12:53 PM 78.1 °F - 60.1 °F 54% 29.92 in 10.0 mi NNW 5.8 mph - N/A   Clear
1:53 PM 79.0 °F - 60.1 °F 52% 29.91 in 10.0 mi West 11.5 mph - N/A   Clear
2:53 PM 80.1 °F 81.1 °F 61.0 °F 52% 29.89 in 10.0 mi WNW 9.2 mph - N/A   Scattered Clouds
3:53 PM 80.1 °F 81.2 °F 62.1 °F 54% 29.88 in 10.0 mi NNW 9.2 mph - N/A   Mostly Cloudy
4:53 PM 79.0 °F - 62.1 °F 56% 29.88 in 10.0 mi WNW 10.4 mph - N/A   Partly Cloudy
5:53 PM 78.1 °F - 61.0 °F 56% 29.87 in 10.0 mi WNW 8.1 mph - N/A   Clear
6:53 PM 75.9 °F - 61.0 °F 60% 29.88 in 10.0 mi West 10.4 mph - N/A   Clear
7:53 PM 72.0 °F - 61.0 °F 68% 29.88 in 10.0 mi West 5.8 mph - N/A   Clear
8:53 PM 69.1 °F - 60.1 °F 73% 29.89 in 10.0 mi West 6.9 mph - N/A   Clear
9:53 PM 66.0 °F - 61.0 °F 84% 29.91 in 10.0 mi SW 5.8 mph - N/A   Clear
10:53 PM 66.0 °F - 60.1 °F 81% 29.91 in 10.0 mi SW 6.9 mph - N/A   Clear
11:53 PM 66.0 °F - 59.0 °F 78% 29.90 in 10.0 mi SW 8.1 mph - N/A   Clear